Regional Weather Roundup
Issued by NWS

Home | Current Version | Previous Version | Text Only | Print | Product List | Glossary Off
Versions: 1 2 3 4 5 6 7 8 9 10 11 12 13 14 15 16 17 18 19 20 21 22 23 24 25 26 27 28 29 30 31 32 33 34 35 36 37 38 39 40 41 42 43 44 45 46 47 48 49 50

000
ASUS43 KOAX 282002
RWRNE

WEATHER ROUNDUP FOR NEBRASKA
NATIONAL WEATHER SERVICE OMAHA NE
300 PM CDT WED JUN 28 2017

NOTES: SATELLITE DATA IS BEING USED TO AUGMENT CLOUD COVER ABOVE
       12000 FEET.
       "FAIR" INDICATES FEW OR NO CLOUDS BELOW 12,000 FEET WITH NO
       SIGNIFICANT WEATHER AND/OR OBSTRUCTIONS TO VISIBILITY.

  * THESE STATIONS DO NOT REPORT WEATHER SUCH AS RAIN...SNOW OR FOG.

NEZ001>004-019>022-054>056-282100-
NEBRASKA PANHANDLE

CITY           SKY/WX    TMP DP  RH WIND       PRES   REMARKS
SCOTTSBLUFF    SUNNY     85  50  29 E7        29.80F
ALLIANCE       SUNNY     81  48  31 VRB3      29.81F
CHADRON        SUNNY     84  45  25 N3        29.77F
GORDON         FAIR      79  49  35 CALM      29.81S
KIMBALL        SUNNY     86  39  19 SE3       29.85F
SIDNEY         SUNNY     86  43  22 NE3       29.83F
$$

NEZ057>060-069>072-079>082-282100-
SOUTHWEST NEBRASKA

CITY           SKY/WX    TMP DP  RH WIND       PRES   REMARKS
NORTH PLATTE   SUNNY     88  51  28 MISG      29.76F
IMPERIAL       SUNNY     90  41  18 MISG      29.79F
LEXINGTON      SUNNY     85  56  36 NW8       29.75F
MCCOOK         SUNNY     89  48  24 CALM      29.75F
OGALLALA       SUNNY     89  46  22 NW12G24   29.79F
$$

NEZ005>010-023>029-035>040-094-282100-
NORTH CENTRAL NEBRASKA

CITY           SKY/WX    TMP DP  RH WIND       PRES   REMARKS
VALENTINE      MOSUNNY   87  48  25 NW12G23   29.74F
AINSWORTH      MOSUNNY   82  54  37 NW12      29.74S
BROKEN BOW     SUNNY     87  53  31 W12       29.74F
O`NEILL        SUNNY     86  56  35 NW15      29.70S
ORD            SUNNY     87  54  32 NW12      29.70F
THEDFORD       SUNNY     87  51  29 NW10G17   29.77S
$$

NEZ041-046>049-061>064-073>077-083>087-282100-
SOUTH CENTRAL NEBRASKA

CITY           SKY/WX    TMP DP  RH WIND       PRES   REMARKS
GRAND ISLAND   SUNNY     87  62  43 VRB3      29.72F
AURORA         MOSUNNY   85  65  51 W7        29.71F
HASTINGS       SUNNY     88  61  40 NW10G21   29.73F
HEBRON         MOSUNNY   94  66  39 W15G21    29.69S HX  96
HOLDREGE       SUNNY     85  57  39 N3        29.75S
KEARNEY *      SUNNY     86  57  37 NW8       29.74F
YORK           SUNNY     84  66  54 W9        29.71S
$$

NEZ011>018-030>034-042>045-282100-
NORTHEAST NEBRASKA

CITY           SKY/WX    TMP DP  RH WIND       PRES   REMARKS
NORFOLK        SUNNY     86  62  44 W10       29.65S
ALBION         MOSUNNY   88  58  36 W9G17     29.69F
BLAIR          PTSUNNY   86  69  56 SW16G24   29.66F HX  90
FREMONT        MOSUNNY   86  67  52 SW13G23   29.67S
TEKAMAH        MOSUNNY   89  66  46 SW20G28   29.63S HX  91
WAYNE          SUNNY     87  63  44 W16G22    29.66S
$$

NEZ050>053-065>068-078-088>093-282100-
SOUTHEAST NEBRASKA

CITY           SKY/WX    TMP DP  RH WIND       PRES   REMARKS
LINCOLN        MOSUNNY   88  69  53 W15       29.67F HX  92
OMAHA EPPLEY   PTSUNNY   88  68  51 W17G25    29.65F HX  91
BEATRICE       PTSUNNY   90  70  51 SW13G23   29.68F HX  95
FALLS CITY     PTSUNNY   89  71  55 S14G29    29.69F HX  95
NEBRASKA CITY  PTSUNNY   87  74  65 SW16G24   29.68S HX  96
PLATTSMOUTH    CLOUDY    84  72  67 S7        29.68F HX  90
$$

NEZ044-045-051>053-067-282100-
OMAHA AREA

CITY           SKY/WX    TMP DP  RH WIND       PRES   REMARKS
OMAHA EPPLEY   PTSUNNY   88  68  51 W17G25    29.65F HX  91
BLAIR          PTSUNNY   86  69  56 SW16G24   29.66F HX  90
FREMONT        MOSUNNY   86  67  52 SW13G23   29.67S
MILLARD        PTSUNNY   89  72  56 W12G24    29.66S HX  96
OFFUTT AFB     PTSUNNY   86  71  61 SW9       29.66F HX  92
PLATTSMOUTH    CLOUDY    84  72  67 S7        29.68F HX  90
WAHOO          FAIR      87  69  55 W12       29.67S HX  90
$$




USA.gov is the U.S. government's official web portal to all federal, state and local government web resources and services.